Location: Chanteloup
(48.8560°N, 2.7390°E)
Time: 12:54:20
(UTC+00:00)

Cosmos 389 Rocket - Pass Details

Date: 24 October 2021
Orbit: 438 x 468 km, 81.1° (Epoch: 05 December)

Event Time Altitude Azimuth Distance (km) Brightness Sun altitude
Rises 17:31:47 0° 209° (SSW) 2,419 6.7 -8.8°
Reaches altitude 10° 17:33:56 10° 218° (SW) 1,558 5.8 -9.1°
Maximum altitude 17:37:06 36° 287° (WNW) 721 4.1 -9.7°
Drops below altitude 10° 17:40:20 10° 356° (N) 1,583 5.1 -10.2°
Sets 17:42:32 0° 5° (N) 2,466 6.0 -10.5°
